Year,Month,Day,Hour,Minute,Value (Times are PST for temperature in C)
2021,04,15,00,00,11.50
2021,04,15,00,01,11.50
2021,04,15,00,02,11.60
2021,04,15,00,03,11.50
2021,04,15,00,04,11.50
2021,04,15,00,05,11.50
2021,04,15,00,06,11.40
2021,04,15,00,07,11.40
2021,04,15,00,08,11.40
2021,04,15,00,09,11.30
2021,04,15,00,10,11.30
2021,04,15,00,11,11.30
2021,04,15,00,12,11.20
2021,04,15,00,13,11.20
2021,04,15,00,14,11.20
2021,04,15,00,15,11.20
2021,04,15,00,16,11.20
2021,04,15,00,17,11.20
2021,04,15,00,18,11.20
2021,04,15,00,19,11.20
2021,04,15,00,20,11.20
2021,04,15,00,21,11.20
2021,04,15,00,22,11.20
2021,04,15,00,23,11.20
2021,04,15,00,24,11.20
2021,04,15,00,25,11.20
2021,04,15,00,26,11.20
2021,04,15,00,27,11.10
2021,04,15,00,28,11.10
2021,04,15,00,29,11.10
2021,04,15,00,30,11.00
2021,04,15,00,31,11.00
2021,04,15,00,32,10.90
2021,04,15,00,33,10.90
2021,04,15,00,34,10.90
2021,04,15,00,35,10.90
2021,04,15,00,36,10.90
2021,04,15,00,37,10.90
2021,04,15,00,38,10.90
2021,04,15,00,39,11.00
2021,04,15,00,40,11.10
2021,04,15,00,41,11.30
2021,04,15,00,42,11.40
2021,04,15,00,43,11.50
2021,04,15,00,44,11.70
2021,04,15,00,45,11.80
2021,04,15,00,46,11.90
2021,04,15,00,47,12.00
2021,04,15,00,48,12.10
2021,04,15,00,49,12.30
2021,04,15,00,50,12.40
2021,04,15,00,51,12.60
2021,04,15,00,52,12.70
2021,04,15,00,53,12.70
2021,04,15,00,54,12.80
2021,04,15,00,55,12.90
2021,04,15,00,56,12.90
2021,04,15,00,57,13.00
2021,04,15,00,58,13.10
2021,04,15,00,59,13.10
2021,04,15,01,00,13.10
2021,04,15,01,01,13.10
2021,04,15,01,02,13.10
2021,04,15,01,03,13.20
2021,04,15,01,04,13.20
2021,04,15,01,05,13.20
2021,04,15,01,06,13.20
2021,04,15,01,07,13.20
2021,04,15,01,08,13.20
2021,04,15,01,09,13.20
2021,04,15,01,10,13.20
2021,04,15,01,11,13.20
2021,04,15,01,12,13.20
2021,04,15,01,13,13.20
2021,04,15,01,14,13.30
2021,04,15,01,15,13.30
2021,04,15,01,16,13.30
2021,04,15,01,17,13.30
2021,04,15,01,18,13.30
2021,04,15,01,19,13.30
2021,04,15,01,20,13.30
2021,04,15,01,21,13.30
2021,04,15,01,22,13.30
2021,04,15,01,23,13.30
2021,04,15,01,24,13.30
2021,04,15,01,25,13.20
2021,04,15,01,26,13.20
2021,04,15,01,27,13.20
2021,04,15,01,28,13.20
2021,04,15,01,29,13.20
2021,04,15,01,30,13.20
2021,04,15,01,31,13.10
2021,04,15,01,32,13.00
2021,04,15,01,33,13.00
2021,04,15,01,34,12.90
2021,04,15,01,35,12.90
2021,04,15,01,36,12.80
2021,04,15,01,37,12.70
2021,04,15,01,38,12.70
2021,04,15,01,39,12.60
2021,04,15,01,40,12.60
2021,04,15,01,41,12.60
2021,04,15,01,42,12.60
2021,04,15,01,43,12.60
2021,04,15,01,44,12.60
2021,04,15,01,45,12.60
2021,04,15,01,46,12.70
2021,04,15,01,47,12.70
2021,04,15,01,48,12.70
2021,04,15,01,49,12.80
2021,04,15,01,50,12.80
2021,04,15,01,51,12.90
2021,04,15,01,52,12.90
2021,04,15,01,53,12.90
2021,04,15,01,54,13.00
2021,04,15,01,55,13.00
2021,04,15,01,56,13.00
2021,04,15,01,57,13.00
2021,04,15,01,58,13.00
2021,04,15,01,59,13.00
2021,04,15,02,00,13.00
2021,04,15,02,01,13.10
2021,04,15,02,02,13.10
2021,04,15,02,03,13.10
2021,04,15,02,04,13.10
2021,04,15,02,05,13.10
2021,04,15,02,06,13.10
2021,04,15,02,07,13.10
2021,04,15,02,08,13.20
2021,04,15,02,09,13.20
2021,04,15,02,10,13.20
2021,04,15,02,11,13.20
2021,04,15,02,12,13.30
2021,04,15,02,13,13.30
2021,04,15,02,14,13.30
2021,04,15,02,15,13.30
2021,04,15,02,16,13.40
2021,04,15,02,17,13.40
2021,04,15,02,18,13.40
2021,04,15,02,19,13.40
2021,04,15,02,20,13.40
2021,04,15,02,21,13.40
2021,04,15,02,22,13.40
2021,04,15,02,23,13.40
2021,04,15,02,24,13.40
2021,04,15,02,25,13.40
2021,04,15,02,26,13.30
2021,04,15,02,27,13.30
2021,04,15,02,28,13.30
2021,04,15,02,29,13.30
2021,04,15,02,30,13.30
2021,04,15,02,31,13.30
2021,04,15,02,32,13.20
2021,04,15,02,33,13.20
2021,04,15,02,34,13.20
2021,04,15,02,35,13.20
2021,04,15,02,36,13.30
2021,04,15,02,37,13.30
2021,04,15,02,38,13.30
2021,04,15,02,39,13.30
2021,04,15,02,40,13.30
2021,04,15,02,41,13.30
2021,04,15,02,42,13.30
2021,04,15,02,43,13.30
2021,04,15,02,44,13.30
2021,04,15,02,45,13.20
2021,04,15,02,46,13.20
2021,04,15,02,47,13.20
2021,04,15,02,48,13.10
2021,04,15,02,49,13.10
2021,04,15,02,50,13.10
2021,04,15,02,51,13.20
2021,04,15,02,52,13.20
2021,04,15,02,53,13.10
2021,04,15,02,54,13.20
2021,04,15,02,55,13.20
2021,04,15,02,56,13.20
2021,04,15,02,57,13.20
2021,04,15,02,58,13.20
2021,04,15,02,59,13.10
2021,04,15,03,00,13.10
2021,04,15,03,01,13.10
2021,04,15,03,02,13.00
2021,04,15,03,03,13.00
2021,04,15,03,04,13.00
2021,04,15,03,05,13.00
2021,04,15,03,06,13.00
2021,04,15,03,07,13.00
2021,04,15,03,08,13.00
2021,04,15,03,09,13.00
2021,04,15,03,10,13.00
2021,04,15,03,11,13.00
2021,04,15,03,12,13.00
2021,04,15,03,13,12.90
2021,04,15,03,14,12.90
2021,04,15,03,15,12.90
2021,04,15,03,16,12.80
2021,04,15,03,17,12.80
2021,04,15,03,18,12.80
2021,04,15,03,19,12.70
2021,04,15,03,20,12.70
2021,04,15,03,21,12.70
2021,04,15,03,22,12.70
2021,04,15,03,23,12.70
2021,04,15,03,24,12.60
2021,04,15,03,25,12.60
2021,04,15,03,26,12.60
2021,04,15,03,27,12.60
2021,04,15,03,28,12.50
2021,04,15,03,29,12.50
2021,04,15,03,30,12.50
2021,04,15,03,31,12.40
2021,04,15,03,32,12.40
2021,04,15,03,33,12.40
2021,04,15,03,34,12.40
2021,04,15,03,35,12.40
2021,04,15,03,36,12.40
2021,04,15,03,37,12.40
2021,04,15,03,38,12.40
2021,04,15,03,39,12.40
2021,04,15,03,40,12.40
2021,04,15,03,41,12.50
2021,04,15,03,42,12.50
2021,04,15,03,43,12.60
2021,04,15,03,44,12.60
2021,04,15,03,45,12.70
2021,04,15,03,46,12.70
2021,04,15,03,47,12.70
2021,04,15,03,48,12.70
2021,04,15,03,49,12.70
2021,04,15,03,50,12.70
2021,04,15,03,51,12.80
2021,04,15,03,52,12.70
2021,04,15,03,53,12.70
2021,04,15,03,54,12.60
2021,04,15,03,55,12.60
2021,04,15,03,56,12.60
2021,04,15,03,57,12.60
2021,04,15,03,58,12.60
2021,04,15,03,59,12.60
2021,04,15,04,00,12.60
2021,04,15,04,01,12.50
2021,04,15,04,02,12.50
2021,04,15,04,03,12.50
2021,04,15,04,04,12.50
2021,04,15,04,05,12.50
2021,04,15,04,06,12.50
2021,04,15,04,07,12.50
2021,04,15,04,08,12.50
2021,04,15,04,09,12.40
2021,04,15,04,10,12.40
2021,04,15,04,11,12.40
2021,04,15,04,12,12.40
2021,04,15,04,13,12.30
2021,04,15,04,14,12.30
2021,04,15,04,15,12.30
2021,04,15,04,16,12.30
2021,04,15,04,17,12.30
2021,04,15,04,18,12.30
2021,04,15,04,19,12.30
2021,04,15,04,20,12.20
2021,04,15,04,21,12.20
2021,04,15,04,22,12.20
2021,04,15,04,23,12.10
2021,04,15,04,24,12.10
2021,04,15,04,25,12.00
2021,04,15,04,26,12.00
2021,04,15,04,27,11.90
2021,04,15,04,28,11.90
2021,04,15,04,29,11.90
2021,04,15,04,30,11.80
2021,04,15,04,31,11.80
2021,04,15,04,32,11.70
2021,04,15,04,33,11.70
2021,04,15,04,34,11.70
2021,04,15,04,35,11.70
2021,04,15,04,36,11.60
2021,04,15,04,37,11.60
2021,04,15,04,38,11.60
2021,04,15,04,39,11.70
2021,04,15,04,40,11.70
2021,04,15,04,41,11.70
2021,04,15,04,42,11.70
2021,04,15,04,43,11.70
2021,04,15,04,44,11.80
2021,04,15,04,45,11.80
2021,04,15,04,46,11.80
2021,04,15,04,47,11.80
2021,04,15,04,48,11.80
2021,04,15,04,49,11.80
2021,04,15,04,50,11.90
2021,04,15,04,51,11.90
2021,04,15,04,52,11.90
2021,04,15,04,53,11.90
2021,04,15,04,54,11.90
2021,04,15,04,55,11.90
2021,04,15,04,56,11.80
2021,04,15,04,57,11.80
2021,04,15,04,58,11.80
2021,04,15,04,59,11.80
2021,04,15,05,00,11.80
2021,04,15,05,01,11.90
2021,04,15,05,02,11.80
2021,04,15,05,03,11.80
2021,04,15,05,04,11.80
2021,04,15,05,05,11.80
2021,04,15,05,06,11.80
2021,04,15,05,07,11.80
2021,04,15,05,08,11.80
2021,04,15,05,09,11.80
2021,04,15,05,10,11.80
2021,04,15,05,11,11.70
2021,04,15,05,12,11.70
2021,04,15,05,13,11.70
2021,04,15,05,14,11.70
2021,04,15,05,15,11.70
2021,04,15,05,16,11.70
2021,04,15,05,17,11.70
2021,04,15,05,18,11.70
2021,04,15,05,19,11.70
2021,04,15,05,20,11.70
2021,04,15,05,21,11.70
2021,04,15,05,22,11.60
2021,04,15,05,23,11.60
2021,04,15,05,24,11.60
2021,04,15,05,25,11.50
2021,04,15,05,26,11.50
2021,04,15,05,27,11.40
2021,04,15,05,28,11.40
2021,04,15,05,29,11.40
2021,04,15,05,30,11.30
2021,04,15,05,31,11.30
2021,04,15,05,32,11.20
2021,04,15,05,33,11.20
2021,04,15,05,34,11.20
2021,04,15,05,35,11.20
2021,04,15,05,36,11.20
2021,04,15,05,37,11.10
2021,04,15,05,38,11.10
2021,04,15,05,39,11.10
2021,04,15,05,40,11.10
2021,04,15,05,41,11.10
2021,04,15,05,42,11.10
2021,04,15,05,43,11.10
2021,04,15,05,44,11.10
2021,04,15,05,45,11.10
2021,04,15,05,46,11.10
2021,04,15,05,47,11.10
2021,04,15,05,48,11.10
2021,04,15,05,49,11.10
2021,04,15,05,50,11.10
2021,04,15,05,51,11.00
2021,04,15,05,52,11.00
2021,04,15,05,53,11.00
2021,04,15,05,54,11.00
2021,04,15,05,55,11.00
2021,04,15,05,56,11.10
2021,04,15,05,57,11.10
2021,04,15,05,58,11.10
2021,04,15,05,59,11.10
2021,04,15,06,00,11.10
2021,04,15,06,01,11.10
2021,04,15,06,02,11.10
2021,04,15,06,03,11.10
2021,04,15,06,04,11.10
2021,04,15,06,05,11.10
2021,04,15,06,06,11.20
2021,04,15,06,07,11.20
2021,04,15,06,08,11.20
2021,04,15,06,09,11.20
2021,04,15,06,10,11.20
2021,04,15,06,11,11.20
2021,04,15,06,12,11.20
2021,04,15,06,13,11.20
2021,04,15,06,14,11.20
2021,04,15,06,15,11.20
2021,04,15,06,16,11.20
2021,04,15,06,17,11.20
2021,04,15,06,18,11.10
2021,04,15,06,19,11.10
2021,04,15,06,20,11.10
2021,04,15,06,21,11.10
2021,04,15,06,22,11.10
2021,04,15,06,23,11.00
2021,04,15,06,24,11.00
2021,04,15,06,25,11.00
2021,04,15,06,26,11.00
2021,04,15,06,27,11.10
2021,04,15,06,28,11.00
2021,04,15,06,29,11.00
2021,04,15,06,30,11.00
2021,04,15,06,31,11.00
2021,04,15,06,32,11.00
2021,04,15,06,33,10.90
2021,04,15,06,34,11.00
2021,04,15,06,35,11.00
2021,04,15,06,36,11.00
2021,04,15,06,37,11.10
2021,04,15,06,38,11.10
2021,04,15,06,39,11.10
2021,04,15,06,40,11.10
2021,04,15,06,41,11.10
2021,04,15,06,42,11.10
2021,04,15,06,43,11.10
2021,04,15,06,44,11.10
2021,04,15,06,45,11.10
2021,04,15,06,46,11.10
2021,04,15,06,47,11.10
2021,04,15,06,48,11.10
2021,04,15,06,49,11.20
2021,04,15,06,50,11.20
2021,04,15,06,51,11.20
2021,04,15,06,52,11.20
2021,04,15,06,53,11.20
2021,04,15,06,54,11.10
2021,04,15,06,55,11.10
2021,04,15,06,56,11.10
2021,04,15,06,57,11.20
2021,04,15,06,58,11.20
2021,04,15,06,59,11.20
2021,04,15,07,00,11.20
2021,04,15,07,01,11.20
2021,04,15,07,02,11.20
2021,04,15,07,03,11.20
2021,04,15,07,04,11.20
2021,04,15,07,05,11.20
2021,04,15,07,06,11.20
2021,04,15,07,07,11.20
2021,04,15,07,08,11.20
2021,04,15,07,09,11.20
2021,04,15,07,10,11.20
2021,04,15,07,11,11.20
2021,04,15,07,12,11.20
2021,04,15,07,13,11.20
2021,04,15,07,14,11.20
2021,04,15,07,15,11.30
2021,04,15,07,16,11.30
2021,04,15,07,17,11.30
2021,04,15,07,18,11.30
2021,04,15,07,19,11.30
2021,04,15,07,20,11.30
2021,04,15,07,21,11.40
2021,04,15,07,22,11.40
2021,04,15,07,23,11.40
2021,04,15,07,24,11.50
2021,04,15,07,25,11.50
2021,04,15,07,26,11.60
2021,04,15,07,27,11.60
2021,04,15,07,28,11.60
2021,04,15,07,29,11.70
2021,04,15,07,30,11.70
2021,04,15,07,31,11.70
2021,04,15,07,32,11.70
2021,04,15,07,33,11.70
2021,04,15,07,34,11.80
2021,04,15,07,35,11.80
2021,04,15,07,36,11.80
2021,04,15,07,37,11.80
2021,04,15,07,38,11.90
2021,04,15,07,39,11.90
2021,04,15,07,40,11.90
2021,04,15,07,41,11.90
2021,04,15,07,42,11.90
2021,04,15,07,43,12.00
2021,04,15,07,44,12.00
2021,04,15,07,45,12.00
2021,04,15,07,46,12.10
2021,04,15,07,47,12.10
2021,04,15,07,48,12.10
2021,04,15,07,49,12.10
2021,04,15,07,50,12.10
2021,04,15,07,51,12.20
2021,04,15,07,52,12.20
2021,04,15,07,53,12.20
2021,04,15,07,54,12.20
2021,04,15,07,55,12.20
2021,04,15,07,56,12.20
2021,04,15,07,57,12.30
2021,04,15,07,58,12.30
2021,04,15,07,59,12.30
2021,04,15,08,00,12.30
2021,04,15,08,01,12.30
2021,04,15,08,02,12.30
2021,04,15,08,03,12.30
2021,04,15,08,04,12.30
2021,04,15,08,05,12.30
2021,04,15,08,06,12.30
2021,04,15,08,07,12.30
2021,04,15,08,08,12.40
2021,04,15,08,09,12.40
2021,04,15,08,10,12.40
2021,04,15,08,11,12.40
2021,04,15,08,12,12.40
2021,04,15,08,13,12.40
2021,04,15,08,14,12.40
2021,04,15,08,15,12.40
2021,04,15,08,16,12.40
2021,04,15,08,17,12.50
2021,04,15,08,18,12.50
2021,04,15,08,19,12.60
2021,04,15,08,20,12.60
2021,04,15,08,21,12.60
2021,04,15,08,22,12.70
2021,04,15,08,23,12.70
2021,04,15,08,24,12.70
2021,04,15,08,25,12.80
2021,04,15,08,26,12.80
2021,04,15,08,27,12.80
2021,04,15,08,28,12.80
2021,04,15,08,29,12.80
2021,04,15,08,30,12.80
2021,04,15,08,31,12.70
2021,04,15,08,32,12.80
2021,04,15,08,33,12.80
2021,04,15,08,34,12.80
2021,04,15,08,35,12.80
2021,04,15,08,36,12.80
2021,04,15,08,37,12.80
2021,04,15,08,38,12.80
2021,04,15,08,39,12.80
2021,04,15,08,40,12.90
2021,04,15,08,41,12.90
2021,04,15,08,42,12.90
2021,04,15,08,43,12.90
2021,04,15,08,44,13.00
2021,04,15,08,45,13.00
2021,04,15,08,46,13.00
2021,04,15,08,47,13.00
2021,04,15,08,48,13.10
2021,04,15,08,49,13.00
2021,04,15,08,50,13.00
2021,04,15,08,51,12.90
2021,04,15,08,52,12.90
2021,04,15,08,53,12.80
2021,04,15,08,54,12.80
2021,04,15,08,55,12.80
2021,04,15,08,56,12.80
2021,04,15,08,57,12.80
2021,04,15,08,58,12.80
2021,04,15,08,59,12.80
2021,04,15,09,00,12.90
2021,04,15,09,01,12.90
2021,04,15,09,02,12.90
2021,04,15,09,03,13.00
2021,04,15,09,04,13.10
2021,04,15,09,05,13.10
2021,04,15,09,06,13.10
2021,04,15,09,07,13.10
2021,04,15,09,08,13.10
2021,04,15,09,09,13.00
2021,04,15,09,10,13.00
2021,04,15,09,11,13.00
2021,04,15,09,12,12.90
2021,04,15,09,13,12.90
2021,04,15,09,14,12.90
2021,04,15,09,15,13.00
2021,04,15,09,16,13.00
2021,04,15,09,17,13.10
2021,04,15,09,18,13.10
2021,04,15,09,19,13.10
2021,04,15,09,20,13.20
2021,04,15,09,21,13.10
2021,04,15,09,22,13.20
2021,04,15,09,23,13.20
2021,04,15,09,24,13.20
2021,04,15,09,25,13.10
2021,04,15,09,26,13.00
2021,04,15,09,27,13.00
2021,04,15,09,28,12.90
2021,04,15,09,29,12.90
2021,04,15,09,30,12.90
2021,04,15,09,31,12.90
2021,04,15,09,32,12.90
2021,04,15,09,33,12.90
2021,04,15,09,34,13.00
2021,04,15,09,35,13.00
2021,04,15,09,36,13.00
2021,04,15,09,37,13.10
2021,04,15,09,38,13.10
2021,04,15,09,39,13.10
2021,04,15,09,40,13.20
2021,04,15,09,41,13.20
2021,04,15,09,42,13.20
2021,04,15,09,43,13.20
2021,04,15,09,44,13.20
2021,04,15,09,45,13.20
2021,04,15,09,46,13.20
2021,04,15,09,47,13.20
2021,04,15,09,48,13.20
2021,04,15,09,49,13.20
2021,04,15,09,50,13.30
2021,04,15,09,51,13.30
2021,04,15,09,52,13.40
2021,04,15,09,53,13.40
2021,04,15,09,54,13.50
2021,04,15,09,55,13.60
2021,04,15,09,56,13.60
2021,04,15,09,57,13.70
2021,04,15,09,58,13.70
2021,04,15,09,59,13.80
2021,04,15,10,00,13.80
2021,04,15,10,01,13.90
2021,04,15,10,02,13.90
2021,04,15,10,03,13.90
2021,04,15,10,04,13.90
2021,04,15,10,05,13.80
2021,04,15,10,06,13.80
2021,04,15,10,07,13.80
2021,04,15,10,08,13.80
2021,04,15,10,09,13.80
2021,04,15,10,10,13.80
2021,04,15,10,11,13.80
2021,04,15,10,12,13.90
2021,04,15,10,13,13.90
2021,04,15,10,14,13.90
2021,04,15,10,15,13.80
2021,04,15,10,16,13.80
2021,04,15,10,17,13.70
2021,04,15,10,18,13.60
2021,04,15,10,19,13.60
2021,04,15,10,20,13.60
2021,04,15,10,21,13.60
2021,04,15,10,22,13.60
2021,04,15,10,23,13.60
2021,04,15,10,24,13.60
2021,04,15,10,25,13.60
2021,04,15,10,26,13.50
2021,04,15,10,27,13.50
2021,04,15,10,28,13.50
2021,04,15,10,29,13.60
2021,04,15,10,30,13.60
2021,04,15,10,31,13.70
2021,04,15,10,32,13.70
2021,04,15,10,33,13.70
2021,04,15,10,34,13.80
2021,04,15,10,35,13.80
2021,04,15,10,36,13.80
2021,04,15,10,37,13.70
2021,04,15,10,38,13.60
2021,04,15,10,39,13.60
2021,04,15,10,40,13.60
2021,04,15,10,41,13.60
2021,04,15,10,42,13.60
2021,04,15,10,43,13.70
2021,04,15,10,44,13.70
2021,04,15,10,45,13.70
2021,04,15,10,46,13.80
2021,04,15,10,47,13.80
2021,04,15,10,48,13.80
2021,04,15,10,49,13.90
2021,04,15,10,50,13.90
2021,04,15,10,51,13.90
2021,04,15,10,52,13.90
2021,04,15,10,53,13.90
2021,04,15,10,54,14.00
2021,04,15,10,55,14.00
2021,04,15,10,56,14.10
2021,04,15,10,57,14.20
2021,04,15,10,58,14.30
2021,04,15,10,59,14.30
2021,04,15,11,00,14.40
2021,04,15,11,01,14.40
2021,04,15,11,02,14.50
2021,04,15,11,03,14.50
2021,04,15,11,04,14.60
2021,04,15,11,05,14.70
2021,04,15,11,06,14.80
2021,04,15,11,07,14.80
2021,04,15,11,08,14.90
2021,04,15,11,09,14.90
2021,04,15,11,10,14.90
2021,04,15,11,11,15.00
2021,04,15,11,12,15.00
2021,04,15,11,13,15.10
2021,04,15,11,14,15.10
2021,04,15,11,15,15.10
2021,04,15,11,16,15.10
2021,04,15,11,17,15.10
2021,04,15,11,18,15.10
2021,04,15,11,19,15.10
2021,04,15,11,20,15.10
2021,04,15,11,21,15.10
2021,04,15,11,22,15.10
2021,04,15,11,23,15.10
2021,04,15,11,24,15.30
2021,04,15,11,25,15.30
2021,04,15,11,26,15.40
2021,04,15,11,27,15.50
2021,04,15,11,28,15.60
2021,04,15,11,29,15.60
2021,04,15,11,30,15.70
2021,04,15,11,31,15.70
2021,04,15,11,32,15.80
2021,04,15,11,33,15.70
2021,04,15,11,34,15.70
2021,04,15,11,35,15.70
2021,04,15,11,36,15.70
2021,04,15,11,37,15.80
2021,04,15,11,38,15.80
2021,04,15,11,39,15.80
2021,04,15,11,40,15.80
2021,04,15,11,41,15.80
2021,04,15,11,42,15.90
2021,04,15,11,43,15.90
2021,04,15,11,44,16.00
2021,04,15,11,45,16.10
2021,04,15,11,46,16.10
2021,04,15,11,47,16.10
2021,04,15,11,48,16.20
2021,04,15,11,49,16.20
2021,04,15,11,50,16.30
2021,04,15,11,51,16.30
2021,04,15,11,52,16.30
2021,04,15,11,53,16.30
2021,04,15,11,54,16.30
2021,04,15,11,55,16.30
2021,04,15,11,56,16.30
2021,04,15,11,57,16.30
2021,04,15,11,58,16.20
2021,04,15,11,59,16.20
2021,04,15,12,00,16.20
2021,04,15,12,01,16.20
2021,04,15,12,02,16.30
2021,04,15,12,03,16.30
2021,04,15,12,04,16.30
2021,04,15,12,05,16.30
2021,04,15,12,06,16.20
2021,04,15,12,07,16.10
2021,04,15,12,08,16.00
2021,04,15,12,09,15.90
2021,04,15,12,10,15.90
2021,04,15,12,11,15.90
2021,04,15,12,12,15.80
2021,04,15,12,13,15.80
2021,04,15,12,14,15.70
2021,04,15,12,15,15.70
2021,04,15,12,16,15.70
2021,04,15,12,17,15.80
2021,04,15,12,18,15.90
2021,04,15,12,19,15.90
2021,04,15,12,20,16.00
2021,04,15,12,21,16.00
2021,04,15,12,22,16.00
2021,04,15,12,23,16.00
2021,04,15,12,24,16.00
2021,04,15,12,25,16.10
2021,04,15,12,26,16.10
2021,04,15,12,27,16.20
2021,04,15,12,28,16.30
2021,04,15,12,29,16.40
2021,04,15,12,30,16.60
2021,04,15,12,31,16.60
2021,04,15,12,32,16.80
2021,04,15,12,33,16.90
2021,04,15,12,34,17.00
2021,04,15,12,35,17.10
2021,04,15,12,36,17.10
2021,04,15,12,37,17.20
2021,04,15,12,38,17.10
2021,04,15,12,39,17.00
2021,04,15,12,40,17.00
2021,04,15,12,41,17.10
2021,04,15,12,42,17.20
2021,04,15,12,43,17.30
2021,04,15,12,44,17.30
2021,04,15,12,45,17.40
2021,04,15,12,46,17.30
2021,04,15,12,47,17.30
2021,04,15,12,48,17.30
2021,04,15,12,49,17.30
2021,04,15,12,50,17.30
2021,04,15,12,51,17.20
2021,04,15,12,52,17.20
2021,04,15,12,53,17.20
2021,04,15,12,54,17.20
2021,04,15,12,55,17.30
2021,04,15,12,56,17.40
2021,04,15,12,57,17.40
2021,04,15,12,58,17.40
2021,04,15,12,59,17.30
2021,04,15,13,00,17.30
2021,04,15,13,01,17.30
2021,04,15,13,02,17.30
2021,04,15,13,03,17.30
2021,04,15,13,04,17.40
2021,04,15,13,05,17.40
2021,04,15,13,06,17.30
2021,04,15,13,07,17.30
2021,04,15,13,08,17.20
2021,04,15,13,09,17.10
2021,04,15,13,10,17.10
2021,04,15,13,11,17.10
2021,04,15,13,12,17.10
2021,04,15,13,13,17.20
2021,04,15,13,14,17.10
2021,04,15,13,15,17.10
2021,04,15,13,16,17.00
2021,04,15,13,17,16.90
2021,04,15,13,18,16.90
2021,04,15,13,19,16.80
2021,04,15,13,20,16.80
2021,04,15,13,21,16.70
2021,04,15,13,22,16.70
2021,04,15,13,23,16.80
2021,04,15,13,24,16.80
2021,04,15,13,25,16.80
2021,04,15,13,26,16.80
2021,04,15,13,27,16.90
2021,04,15,13,28,16.90
2021,04,15,13,29,17.00
2021,04,15,13,30,17.00
2021,04,15,13,31,17.10
2021,04,15,13,32,17.10
2021,04,15,13,33,17.10
2021,04,15,13,34,17.10
2021,04,15,13,35,17.20
2021,04,15,13,36,17.20
2021,04,15,13,37,17.20
2021,04,15,13,38,17.20
2021,04,15,13,39,17.20
2021,04,15,13,40,17.20
2021,04,15,13,41,17.20
2021,04,15,13,42,17.20
2021,04,15,13,43,17.20
2021,04,15,13,44,17.10
2021,04,15,13,45,17.10
2021,04,15,13,46,17.10
2021,04,15,13,47,17.10
2021,04,15,13,48,17.20
2021,04,15,13,49,17.20
2021,04,15,13,50,17.30
2021,04,15,13,51,17.30
2021,04,15,13,52,17.40
2021,04,15,13,53,17.50
2021,04,15,13,54,17.50
2021,04,15,13,55,17.60
2021,04,15,13,56,17.70
2021,04,15,13,57,17.90
2021,04,15,13,58,18.00
2021,04,15,13,59,18.00
2021,04,15,14,00,18.00
2021,04,15,14,01,17.90
2021,04,15,14,02,17.90
2021,04,15,14,03,17.90
2021,04,15,14,04,17.90
2021,04,15,14,05,17.90
2021,04,15,14,06,17.90
2021,04,15,14,07,17.90
2021,04,15,14,08,18.00
2021,04,15,14,09,18.10
2021,04,15,14,10,18.10
2021,04,15,14,11,18.10
2021,04,15,14,12,18.20
2021,04,15,14,13,18.20
2021,04,15,14,14,18.20
2021,04,15,14,15,18.10
2021,04,15,14,16,18.00
2021,04,15,14,17,17.90
2021,04,15,14,18,17.80
2021,04,15,14,19,17.80
2021,04,15,14,20,17.80
2021,04,15,14,21,17.80
2021,04,15,14,22,17.80
2021,04,15,14,23,17.80
2021,04,15,14,24,17.80
2021,04,15,14,25,17.80
2021,04,15,14,26,17.80
2021,04,15,14,27,17.80
2021,04,15,14,28,17.70
2021,04,15,14,29,17.70
2021,04,15,14,30,17.80
2021,04,15,14,31,17.80
2021,04,15,14,32,17.70
